When you browse on this site, cookies collect data to enhance your experience and personalize the content and advertising you see.
Visit our Privacy Policy to learn more. By continuing to use the site, you agree to this use of cookies and data.
  • In Sweden
  • List of Countries
  • For 7 days
  • Water Temperature
  • Satellite Maps
  • Weather Map
  • Weather Widgets
  • user-avatar
    Login

    Hourly Weather Jaranowek

    Today, 23 February, Saturday

    Time Temperature Precipitation Wind Pressure Humidity
    00:00 -5°C° 0 mm 3 mps 775 mmHg 49%
    01:00 -4°C° 0 mm 2 mps 776 mmHg 42%
    02:00 -4°C° 0 mm 2 mps 776 mmHg 43%
    03:00 -2°C° 0 mm 1 mps 775 mmHg 44%
    04:00 -2°C° 0 mm 1 mps 775 mmHg 44%
    05:00 -3°C° 0 mm 0 mps 775 mmHg 45%
    06:00 -4°C° 0 mm 0 mps 775 mmHg 45%
    07:00 -4°C° 0 mm 0 mps 776 mmHg 45%
    08:00 -3°C° 0 mm 0 mps 776 mmHg 41%
    09:00 -1°C° 0 mm 1 mps 776 mmHg 38%
    10:00 -1°C° 0 mm 1 mps 776 mmHg 34%
    11:00 0°C° 0 mm 1 mps 776 mmHg 32%
    12:00 -1°C° 0 mm 2 mps 775 mmHg 29%
    13:00 -1°C° 0 mm 2 mps 776 mmHg 27%
    14:00 -1°C° 0 mm 2 mps 775 mmHg 29%
    15:00 -1°C° 0 mm 2 mps 774 mmHg 30%
    16:00 -1°C° 0 mm 3 mps 774 mmHg 32%
    17:00 -1°C° 0 mm 3 mps 773 mmHg 34%
    18:00 -2°C° 0 mm 2 mps 773 mmHg 36%
    19:00 -2°C° 0 mm 2 mps 773 mmHg 39%
    20:00 -2°C° 0 mm 2 mps 773 mmHg 40%
    21:00 -4°C° 0 mm 3 mps 772 mmHg 41%
    22:00 -4°C° 0 mm 3 mps 772 mmHg 43%
    23:00 -4°C° 0 mm 3 mps 772 mmHg 42%

    Tomorrow, 24 February, Sunday

    Time Temperature Precipitation Wind Pressure Humidity
    00:00 -4°C° 0 mm 3 mps 772 mmHg 41%
    01:00 -4°C° 0 mm 3 mps 772 mmHg 40%
    02:00 -4°C° 0 mm 3 mps 771 mmHg 39%
    03:00 -3°C° 0 mm 4 mps 771 mmHg 38%
    04:00 -3°C° 0 mm 4 mps 771 mmHg 37%
    05:00 -3°C° 0 mm 4 mps 770 mmHg 38%
    06:00 -3°C° 0 mm 4 mps 770 mmHg 40%
    07:00 -3°C° 0 mm 4 mps 770 mmHg 41%
    08:00 -2°C° 0 mm 4 mps 770 mmHg 40%
    09:00 -1°C° 0 mm 4 mps 770 mmHg 39%
    10:00 0°C° 0 mm 4 mps 770 mmHg 38%
    11:00 +1°C° 0 mm 4 mps 769 mmHg 37%
    12:00 +3°C° 0 mm 4 mps 769 mmHg 36%
    13:00 +4°C° 0 mm 4 mps 769 mmHg 34%
    14:00 +4°C° 0 mm 3 mps 769 mmHg 40%
    15:00 +4°C° 0 mm 3 mps 769 mmHg 45%
    16:00 +4°C° 0 mm 2 mps 768 mmHg 51%
    17:00 +2°C° 0 mm 3 mps 768 mmHg 55%
    18:00 +1°C° 0 mm 3 mps 768 mmHg 60%
    19:00 0°C° 0 mm 3 mps 768 mmHg 64%
    20:00 0°C° 0 mm 3 mps 768 mmHg 66%
    21:00 0°C° 0 mm 3 mps 768 mmHg 68%
    22:00 -1°C° 0 mm 3 mps 768 mmHg 70%
    23:00 -1°C° 0 mm 3 mps 768 mmHg 70%

    Day after tomorrow, 25 February, Monday

    Time Temperature Precipitation Wind Pressure Humidity
    00:00 -1°C° 0 mm 3 mps 768 mmHg 71%
    01:00 -1°C° 0 mm 3 mps 768 mmHg 71%
    02:00 -1°C° 0 mm 3 mps 768 mmHg 73%
    03:00 -1°C° 0 mm 3 mps 767 mmHg 76%
    04:00 -1°C° 0 mm 3 mps 767 mmHg 78%
    05:00 -1°C° 0 mm 3 mps 767 mmHg 82%
    06:00 -1°C° 0 mm 3 mps 767 mmHg 86%
    07:00 -1°C° 0 mm 3 mps 767 mmHg 90%
    08:00 0°C° 0 mm 3 mps 768 mmHg 88%
    09:00 0°C° 0 mm 4 mps 768 mmHg 87%
    10:00 +3°C° 0 mm 4 mps 768 mmHg 86%
    11:00 +3°C° 0 mm 4 mps 768 mmHg 86%
    12:00 +3°C° 0 mm 4 mps 767 mmHg 85%
    13:00 +4°C° 0 mm 3 mps 767 mmHg 85%
    14:00 +4°C° 0 mm 3 mps 767 mmHg 84%
    15:00 +4°C° 0 mm 3 mps 767 mmHg 83%
    16:00 +5°C° 0 mm 3 mps 766 mmHg 82%
    17:00 +4°C° 0 mm 3 mps 766 mmHg 84%
    18:00 +3°C° 0 mm 3 mps 766 mmHg 87%
    19:00 +2°C° 0 mm 3 mps 766 mmHg 89%
    20:00 +2°C° 0 mm 3 mps 766 mmHg 90%
    21:00 +1°C° 0 mm 3 mps 766 mmHg 91%
    22:00 +1°C° 0 mm 3 mps 766 mmHg 91%
    23:00 0°C° 0 mm 3 mps 766 mmHg 93%

    26 February, Tuesday

    Time Temperature Precipitation Wind Pressure Humidity
    00:00 0°C° 0 mm 3 mps 765 mmHg 94%
    01:00 0°C° 0 mm 3 mps 765 mmHg 95%
    02:00 0°C° 0 mm 3 mps 765 mmHg 95%
    03:00 0°C° 0 mm 3 mps 764 mmHg 96%
    04:00 -1°C° 0 mm 4 mps 763 mmHg 97%
    05:00 0°C° 0 mm 4 mps 763 mmHg 96%
    06:00 +1°C° 0 mm 4 mps 763 mmHg 96%
    07:00 +3°C° 0 mm 4 mps 762 mmHg 95%
    08:00 +2°C° 0 mm 5 mps 762 mmHg 93%
    09:00 +3°C° 0 mm 5 mps 763 mmHg 91%
    10:00 +5°C° 0 mm 5 mps 763 mmHg 89%
    11:00 +5°C° 0 mm 5 mps 763 mmHg 82%
    12:00 +6°C° 0 mm 5 mps 763 mmHg 76%
    13:00 +7°C° 0 mm 5 mps 763 mmHg 69%
    14:00 +7°C° 0 mm 5 mps 763 mmHg 68%
    15:00 +7°C° 0 mm 4 mps 763 mmHg 67%
    16:00 +7°C° 0 mm 4 mps 763 mmHg 66%
    17:00 +6°C° 0 mm 4 mps 763 mmHg 71%
    18:00 +5°C° 0 mm 3 mps 764 mmHg 76%
    19:00 +3°C° 0 mm 3 mps 764 mmHg 81%
    20:00 +3°C° 0 mm 3 mps 764 mmHg 84%
    21:00 +2°C° 0 mm 3 mps 765 mmHg 86%
    22:00 +2°C° 0 mm 2 mps 765 mmHg 88%
    23:00 +2°C° 0 mm 2 mps 765 mmHg 88%

    27 February, Wednesday

    Time Temperature Precipitation Wind Pressure Humidity
    00:00 +2°C° 0 mm 2 mps 765 mmHg 88%
    01:00 +2°C° 0 mm 1 mps 765 mmHg 88%
    02:00 +2°C° 0 mm 1 mps 765 mmHg 88%
    03:00 +1°C° 0 mm 2 mps 764 mmHg 87%
    04:00 +1°C° 0 mm 2 mps 764 mmHg 87%
    05:00 +1°C° 0 mm 2 mps 764 mmHg 87%
    06:00 +1°C° 0 mm 2 mps 763 mmHg 87%
    07:00 0°C° 0 mm 3 mps 763 mmHg 88%
    08:00 +2°C° 0 mm 3 mps 763 mmHg 84%
    09:00 +3°C° 0 mm 4 mps 762 mmHg 80%
    10:00 +5°C° 0 mm 4 mps 762 mmHg 77%
    11:00 +6°C° 0 mm 5 mps 761 mmHg 72%
    12:00 +7°C° 0 mm 5 mps 761 mmHg 68%
    13:00 +8°C° 0 mm 5 mps 760 mmHg 63%
    14:00 +8°C° 0 mm 5 mps 760 mmHg 64%
    15:00 +8°C° 0 mm 4 mps 759 mmHg 65%
    16:00 +10°C° 0 mm 4 mps 759 mmHg 65%
    17:00 +7°C° 0 mm 4 mps 759 mmHg 72%
    18:00 +7°C° 0 mm 3 mps 758 mmHg 79%
    19:00 +5°C° 0 mm 3 mps 758 mmHg 86%
    20:00 +5°C° 0 mm 3 mps 758 mmHg 87%
    21:00 +4°C° 0 mm 3 mps 757 mmHg 89%
    22:00 +4°C° 0 mm 3 mps 756 mmHg 91%
    23:00 +4°C° 0 mm 3 mps 756 mmHg 90%

    28 February, Thursday

    Time Temperature Precipitation Wind Pressure Humidity
    00:00 +4°C° 0 mm 4 mps 755 mmHg 89%
    01:00 +4°C° 0 mm 4 mps 754 mmHg 88%
    02:00 +4°C° 0 mm 4 mps 753 mmHg 87%
    03:00 +2°C° 0 mm 5 mps 752 mmHg 86%
    04:00 +2°C° 0 mm 5 mps 752 mmHg 85%
    05:00 +2°C° 0 mm 6 mps 751 mmHg 83%
    06:00 +2°C° 0 mm 6 mps 750 mmHg 81%
    07:00 +2°C° 0 mm 7 mps 750 mmHg 80%
    08:00 +3°C° 0 mm 7 mps 750 mmHg 79%
    09:00 +4°C° 0 mm 8 mps 750 mmHg 79%
    10:00 +5°C° 0 mm 9 mps 749 mmHg 79%
    11:00 +5°C° 0 mm 9 mps 749 mmHg 76%
    12:00 +5°C° 0 mm 10 mps 749 mmHg 73%
    13:00 +6°C° 0 mm 10 mps 749 mmHg 70%
    14:00 +6°C° 0 mm 9 mps 749 mmHg 66%
    15:00 +6°C° 0 mm 9 mps 749 mmHg 62%
    16:00 +7°C° 0 mm 9 mps 749 mmHg 58%
    17:00 +6°C° 0 mm 8 mps 750 mmHg 61%
    18:00 +5°C° 0 mm 8 mps 750 mmHg 64%
    19:00 +4°C° 0 mm 8 mps 750 mmHg 66%
    20:00 +3°C° 0 mm 7 mps 750 mmHg 70%
    21:00 +3°C° 0 mm 7 mps 751 mmHg 74%
    22:00 +2°C° 0 mm 6 mps 751 mmHg 77%
    23:00 +2°C° 0 mm 6 mps 751 mmHg 78%
    Show more